This is the latest recevied weather packets stored in our database for station/object N5SOR-1. If no packets are shown the sender has not sent any weather packets the latest 10 day(s).
| Time | Temp. | Humidity | Pressure | Rain* | Wind** | Luminosity | Snow |
|---|---|---|---|---|---|---|---|
| 1777149109 | 32.22° C | 9% | 1004.7 hPa | 0 mm | - | 974 W/m² | - |
| 1777148449 | 31.67° C | 9% | 1005.6 hPa | 0 mm | - | 962 W/m² | - |
| 1777147788 | 32.22° C | 9% | 1005.6 hPa | 0 mm | - | 991 W/m² | - |
| 1777147128 | 31.67° C | 9% | 1005.7 hPa | 0 mm | - | 1000 W/m² | - |
| 1777146467 | 31.67° C | 10% | 1006 hPa | 0 mm | - | 1007 W/m² | - |
| 1777145806 | 31.11° C | 10% | 1006.1 hPa | 0 mm | - | 991 W/m² | - |
| 1777145146 | 30.56° C | 10% | 1006.4 hPa | 0 mm | - | 944 W/m² | - |
| 1777144485 | 31.11° C | 10% | 1006.6 hPa | 0 mm | - | 793 W/m² | - |
| 1777143825 | 30.56° C | 11% | 1006.8 hPa | 0 mm | - | 981 W/m² | - |
| 1777143164 | 30° C | 10% | 1007 hPa | 0 mm | - | 977 W/m² | - |
| 1777142503 | 30° C | 10% | 1007.1 hPa | 0 mm | - | 970 W/m² | - |
| 1777141843 | 30° C | 11% | 1007.3 hPa | 0 mm | - | 844 W/m² | - |
| 1777141182 | 30° C | 11% | 1007.4 hPa | 0 mm | - | 884 W/m² | - |
| 1777140521 | 29.44° C | 11% | 1007.3 hPa | 0 mm | - | 54 W/m² | - |
| 1777139861 | 28.89° C | 12% | 1007.4 hPa | 0 mm | - | 605 W/m² | - |
| 1777139200 | 28.89° C | 11% | 1007.7 hPa | 0 mm | - | 278 W/m² | - |
| 1777138539 | 28.89° C | 12% | 1007.7 hPa | 0 mm | - | 84 W/m² | - |
| 1777137879 | 28.33° C | 11% | 1008 hPa | 0 mm | - | 768 W/m² | - |
| 1777137218 | 28.33° C | 12% | 1008 hPa | 0 mm | - | 831 W/m² | - |
| 1777136558 | 27.78° C | 12% | 1008 hPa | 0 mm | - | 135 W/m² | - |
| 1777135897 | 27.78° C | 12% | 1008.1 hPa | 0 mm | - | 65 W/m² | - |
| 1777135237 | 27.78° C | 12% | 1008.1 hPa | 0 mm | - | 46 W/m² | - |
| 1777134576 | 27.78° C | 12% | 1008.1 hPa | 0 mm | - | 40 W/m² | - |
| 1777133915 | 27.22° C | 12% | 1008 hPa | 0 mm | - | 39 W/m² | - |
| 1777133255 | 26.67° C | 13% | 1008 hPa | 0 mm | - | 40 W/m² | - |
* Rain latest hour (hover to see other rain measurements)
** Current wind speed in m/s (hover to see current wind gust speed)